Location: *
(17.3280°S, 114.7300°W)
Time: 07:20:00
(UTC+00:00)

Cosmos 1400 Rocket - Pass Details

Date: 05 August 2020
Orbit: 523 x 567 km, 81.2° (Epoch: 20 September)

Event Time Altitude Azimuth Distance (km) Brightness Sun altitude
Exits shadow 12:36:39 - 179° (S) 2,680 6.2 -20.7°
Reaches altitude 10° 12:38:41 10° 175° (S) 1,862 5.4 -20.3°
Maximum altitude 12:42:42 54° 97° (E) 683 3.6 -19.3°
Drops below altitude 10° 12:46:38 10° 19° (NNE) 1,818 5.9 -18.4°
Sets 12:48:48 0° 14° (NNE) 2,697 6.7 -17.9°
